Theta_e
328 328 327 327 328 329 335 340 343 339 336 337 346 348 343 340 339 336 334 333 330 330 328 326 324 324 323 322 321 319 318 316 314 315 315 314 313 314 313 312 312 311 312 312
326 326 327 330 329 335 338 338 341 337 336 340 345 348 343 341 339 336 335 332 330 329 329 326 325 323 323 321 320 318 317 315 315 314 314 313 314 314 312 311 311 311 313 313
331 332 332 331 334 336 336 337 340 338 334 341 342 349 342 342 339 335 334 332 329 330 328 326 324 323 322 320 319 317 315 315 314 313 314 313 312 312 311 311 312 313 314 314
334 333 332 330 337 336 336 335 333 335 337 342 337 343 336 340 341 334 332 330 331 329 327 326 324 323 321 319 317 317 316 315 314 313 314 314 314 312 313 312 312 313 314 314
337 334 336 337 335 333 333 334 333 333 340 339 341 344 340 338 342 337 333 329 329 328 324 323 323 322 320 318 316 316 316 315 314 314 314 314 314 314 313 312 313 312 312 314
335 333 333 337 338 335 335 336 333 331 336 346 343 343 338 334 337 338 333 331 328 325 325 324 322 320 318 317 316 315 316 315 314 315 316 315 315 315 314 314 313 313 312 313
337 336 336 335 341 337 332 332 333 332 336 345 342 340 335 338 337 335 335 330 326 326 325 324 322 320 317 317 316 315 315 314 313 314 315 315 315 314 314 314 313 313 313 312
333 342 339 337 337 332 328 329 331 336 337 329 335 339 339 335 333 332 329 328 328 327 325 322 320 319 318 316 315 314 314 314 314 313 315 315 315 314 314 314 313 313 313 313
334 335 331 333 332 329 330 331 329 333 331 336 337 335 333 334 333 330 332 331 330 327 324 322 319 319 317 316 315 314 314 314 314 314 313 314 314 314 315 314 313 313 314 314
334 337 332 329 330 329 326 328 331 331 339 336 340 336 335 332 328 329 332 331 329 326 322 321 319 318 316 314 314 314 314 314 313 314 314 315 315 315 313 314 313 314 314 313
335 334 329 330 330 332 332 334 332 334 338 336 337 338 331 327 326 325 325 328 327 325 322 319 318 316 315 314 314 315 314 314 314 314 314 315 316 316 315 315 314 314 314 313
331 331 336 335 331 331 332 333 335 338 338 335 336 335 327 322 321 323 323 322 324 321 321 319 316 316 314 314 314 314 314 314 314 313 316 316 317 317 316 315 315 314 313 312
332 335 331 335 336 333 333 330 330 333 333 334 337 334 323 321 320 320 320 321 321 320 319 318 317 315 314 314 314 314 314 314 314 314 316 316 316 316 316 315 315 315 313 312
337 334 338 339 336 334 334 329 328 330 332 333 327 328 321 320 321 321 320 320 320 320 319 318 317 315 315 315 314 314 314 314 314 315 316 316 315 315 314 313 314 314 314 314
341 338 335 332 331 330 328 328 329 327 326 327 325 323 321 320 320 320 321 320 320 320 319 318 317 316 315 315 314 314 314 314 314 316 316 316 316 314 314 314 316 316 314 314
334 338 336 335 328 326 326 326 326 324 321 322 322 322 320 320 320 320 320 319 319 319 319 317 316 316 315 315 314 313 315 315 314 314 315 315 314 314 314 314 315 315 316 315
339 340 339 340 334 331 331 326 325 323 322 321 323 321 321 321 321 323 323 320 319 319 318 318 316 316 315 314 314 314 315 315 314 315 315 315 313 314 313 313 314 316 315 315
338 339 341 340 336 332 326 324 324 324 323 323 324 323 323 323 323 322 320 320 319 318 318 317 316 316 315 314 314 314 314 315 314 316 315 314 313 313 314 312 314 315 316 315
338 337 339 339 336 328 327 324 321 323 328 325 324 323 323 322 321 320 320 320 319 318 318 317 317 315 315 315 314 313 314 314 315 316 316 314 314 314 315 316 315 313 314 316
333 337 334 334 336 335 326 326 323 325 331 327 325 325 324 323 326 325 321 320 319 319 318 318 317 316 315 315 314 314 314 314 315 316 316 314 313 314 315 317 317 318 315 314
339 335 334 329 331 331 329 327 326 331 332 327 325 325 325 326 325 324 323 321 320 320 319 319 318 317 316 315 314 315 315 316 316 315 315 314 314 314 313 315 318 318 317 314
333 336 334 332 335 336 326 327 330 328 324 324 323 322 322 322 322 322 322 321 321 321 321 319 318 318 317 315 315 315 315 314 315 315 316 315 314 314 314 313 316 316 317 317
333 333 332 333 332 327 324 324 323 321 320 319 319 318 319 319 319 319 320 319 319 320 319 319 318 320 317 316 316 316 316 314 316 316 315 316 315 316 314 314 315 314 314 316
330 330 333 330 325 322 321 320 318 316 315 314 314 315 316 318 318 317 319 319 318 319 319 319 320 318 316 318 316 316 316 315 315 316 315 316 316 316 315 315 315 313 314 315
327 328 328 326 325 324 319 317 315 314 312 312 312 313 313 314 314 314 314 315 316 316 317 318 319 320 319 319 317 316 315 315 314 314 316 317 318 317 316 315 316 315 313 314
324 326 326 324 322 320 318 315 314 313 313 312 312 312 311 311 312 312 314 314 314 314 314 316 318 319 320 320 319 317 316 314 314 316 315 317 318 317 315 315 316 315 314 313
Wind_Speed
16 12 13 17 15 14 12 14 20 13 16 7 2 17 13 13 12 13 13 14 11 10 14 18 14 14 14 10 6 10 11 13 13 17 15 16 16 16 14 11 14 16 16 16
15 17 14 14 14 23 20 11 7 6 4 6 14 15 15 12 11 12 15 14 10 12 10 14 13 13 8 4 6 10 9 9 10 13 13 14 15 14 8 12 14 14 15 14
21 10 12 11 8 15 11 11 5 7 7 11 6 7 6 3 5 8 6 7 7 11 10 12 12 9 5 8 5 6 4 6 7 12 11 13 13 15 12 14 14 15 13 14
21 14 13 16 16 4 8 8 10 11 13 3 9 5 2 9 11 16 13 12 5 9 12 11 10 8 8 3 3 4 5 4 6 10 10 11 12 11 10 12 16 11 13 15
11 16 22 29 6 11 13 14 16 21 8 6 3 2 10 11 11 13 13 14 13 9 6 10 15 6 2 3 6 8 9 5 8 9 8 10 10 11 11 13 13 12 15 12
2 4 8 16 26 22 9 16 22 14 5 4 4 5 12 5 12 8 11 14 13 11 12 13 10 5 1 8 10 12 9 7 10 12 9 9 10 12 13 13 10 13 16 11
3 6 10 12 9 26 17 19 13 13 10 2 18 13 5 10 8 12 12 10 8 8 9 10 7 6 12 10 11 10 11 11 11 11 11 10 10 12 12 13 13 12 15 15
9 6 11 19 11 15 20 14 10 11 13 18 14 7 4 9 14 10 9 11 8 8 10 8 5 12 14 12 10 14 11 11 9 12 11 8 8 11 11 11 12 12 12 13
14 13 12 6 6 14 11 12 14 16 20 8 1 3 5 11 11 9 8 5 11 8 7 7 11 12 8 10 11 9 7 8 10 9 8 10 10 12 10 11 11 10 10 11
12 12 16 20 11 12 14 12 11 10 8 4 8 11 6 4 10 10 10 6 6 6 7 7 5 4 8 11 11 6 7 7 11 12 8 11 11 9 11 9 11 11 10 10
13 9 12 14 13 19 13 17 13 7 6 3 5 4 4 11 12 11 9 9 8 10 5 6 8 16 9 12 8 5 8 8 9 11 9 12 10 10 8 9 9 10 9 10
13 5 8 18 16 17 20 17 14 6 8 4 2 3 8 12 12 10 10 12 11 10 8 11 13 9 7 9 7 10 8 8 11 12 10 12 11 10 8 7 9 10 10 8
10 7 7 3 12 14 12 13 15 11 6 10 6 2 8 9 11 11 12 10 5 3 6 8 6 3 3 9 6 6 6 9 6 11 12 12 12 9 8 8 9 9 10 8
5 6 14 10 7 10 10 13 12 7 7 5 8 7 12 13 11 11 10 7 8 11 7 3 4 9 7 7 4 3 6 5 7 10 11 9 11 4 7 9 8 7 8 7
8 10 16 12 10 11 7 10 11 13 10 6 9 15 13 12 12 11 10 10 9 4 6 9 8 6 7 7 3 3 5 7 7 6 5 6 7 8 6 4 4 6 6 2
4 4 12 12 10 8 11 8 7 11 14 13 12 14 12 12 11 10 9 12 14 12 10 8 9 9 8 5 3 4 7 11 5 7 10 5 3 5 6 11 10 4 5 6
3 2 5 2 6 4 7 12 11 13 11 12 9 9 11 12 12 9 12 14 14 12 11 10 10 8 6 9 3 5 9 10 7 11 11 11 6 8 4 8 7 8 8 5
5 7 2 3 3 3 5 10 9 11 11 13 14 16 17 17 7 9 8 9 10 10 9 11 11 6 4 3 3 7 11 12 8 13 11 5 7 11 11 6 4 5 6 5
5 1 3 2 3 10 11 11 9 8 9 13 13 13 15 16 6 3 10 14 7 8 8 6 11 10 3 2 3 7 12 16 9 14 9 4 5 6 6 8 8 8 7 7
6 7 1 5 2 3 7 16 14 6 0 7 8 11 13 14 12 13 13 10 14 15 5 4 6 9 5 6 6 8 11 14 13 14 8 6 7 9 12 4 7 6 9 13
5 4 7 2 3 6 17 18 14 5 6 9 8 10 13 7 6 16 19 14 15 11 12 15 8 8 10 11 11 11 13 14 12 16 12 12 9 10 11 9 6 7 8 8
9 6 6 7 3 4 17 12 7 6 12 11 8 13 13 13 14 15 15 19 29 16 19 15 14 13 15 15 12 13 14 15 14 14 17 11 12 11 12 11 13 10 8 12
6 9 5 7 5 5 11 9 6 12 13 17 16 13 15 14 13 14 14 16 20 19 11 22 24 21 15 19 17 13 15 14 16 14 17 17 13 13 14 16 16 14 15 17
10 12 5 4 8 7 8 8 11 13 14 14 15 14 15 14 14 15 17 20 22 25 26 24 19 17 31 12 16 16 13 13 14 16 17 16 13 15 16 18 12 11 16 17
7 6 6 7 6 4 11 12 13 14 17 16 19 20 17 12 9 12 14 15 19 23 23 26 24 23 16 21 11 20 15 16 15 17 19 15 15 15 14 17 17 15 17 11
10 8 5 4 8 7 8 8 10 11 11 13 12 12 14 15 15 19 17 20 19 22 25 24 28 29 24 21 15 5 10 19 17 17 17 16 15 14 12 17 18 15 13 12
Wind_Direction
252 260 272 314 301 322 47 55 122 162 214 322 123 151 169 161 183 157 161 157 154 143 143 98 94 100 88 71 27 42 30 17 6 1 1 352 341 338 349 350 357 341 338 329
256 258 277 338 333 17 18 359 345 266 329 214 217 147 167 158 177 171 169 150 140 126 135 121 115 112 100 66 50 45 41 17 9 357 354 346 340 340 322 357 345 337 331 338
296 39 355 291 23 64 47 302 278 260 288 254 352 117 62 9 164 110 70 76 119 140 141 141 130 113 93 57 27 45 40 37 15 354 354 351 349 352 355 344 329 337 342 336
282 21 334 310 88 224 237 225 316 269 256 0 336 306 303 190 175 90 80 84 217 159 153 146 134 103 66 17 2 95 102 52 18 353 340 344 338 358 332 324 336 334 346 345
4 6 344 320 326 335 332 341 315 301 72 255 123 55 24 203 142 131 140 169 225 178 136 93 86 86 130 67 33 125 108 48 14 349 337 341 356 331 335 334 337 347 343 349
118 37 295 343 334 312 317 311 298 291 242 312 68 24 34 27 249 142 185 187 208 115 101 107 105 133 179 48 35 114 79 34 12 347 346 341 340 331 334 333 334 340 346 355
63 49 357 49 272 291 346 329 327 340 349 55 107 81 212 299 93 127 172 140 96 111 127 97 176 203 84 39 47 70 46 23 6 351 0 356 343 336 334 346 344 343 345 354
342 221 193 214 235 344 321 342 359 330 307 310 47 22 44 324 66 40 86 115 92 41 116 153 80 49 33 18 51 54 25 7 357 0 3 358 350 355 349 340 339 339 348 346
316 345 347 47 267 341 359 343 356 342 299 34 15 132 262 217 127 142 147 185 99 140 185 72 75 68 15 20 58 40 27 3 350 343 351 359 351 347 344 337 344 343 346 349
333 337 334 339 12 26 357 21 343 357 9 1 129 64 14 65 40 98 116 105 142 135 116 124 68 77 51 75 98 71 23 8 338 328 334 350 333 351 346 347 341 355 2 5
35 3 322 42 28 25 18 15 3 73 105 299 332 57 287 20 46 22 38 139 148 114 129 96 59 74 51 89 89 39 15 354 328 338 346 352 346 334 322 343 351 350 7 9
35 309 325 68 43 53 50 30 18 34 61 129 184 45 279 31 30 31 12 26 51 13 23 67 64 52 38 91 54 44 9 334 326 3 338 3 5 12 1 0 356 7 22 4
334 23 307 65 52 43 44 31 13 72 96 27 54 311 30 33 20 27 18 24 33 45 46 49 359 2 78 86 51 24 345 311 355 343 345 358 359 27 10 24 26 34 25 15
293 20 81 70 62 24 24 13 40 49 39 39 33 128 35 19 18 19 19 1 350 58 31 329 289 120 103 102 46 28 328 319 349 330 336 349 5 10 26 25 26 27 22 29
359 73 83 78 45 54 45 43 31 38 21 15 38 53 24 15 4 12 2 2 343 36 18 17 4 16 104 123 46 358 316 324 308 343 339 327 354 12 356 346 354 4 351 19
29 90 85 52 84 79 50 55 54 48 28 16 25 26 14 13 3 11 14 359 351 352 13 4 6 347 37 79 34 328 308 299 256 335 310 320 307 344 336 337 358 7 351 357
74 124 96 147 269 313 34 3 9 61 43 20 30 358 11 7 344 20 19 10 353 354 358 10 359 16 50 67 6 316 306 304 333 307 311 303 323 336 320 332 329 345 349 344
92 111 92 138 240 64 57 14 333 77 39 21 24 15 11 1 43 49 15 13 358 348 355 357 344 60 97 54 340 303 300 296 294 291 297 319 347 331 355 318 297 333 334 336
108 141 120 155 170 127 45 26 349 299 66 16 354 11 2 343 329 357 12 9 8 355 3 345 326 333 117 181 275 286 301 298 281 289 292 213 318 319 337 356 328 330 321 308
168 205 149 210 22 136 17 12 339 25 104 324 314 10 4 7 352 333 359 360 2 330 329 268 285 297 311 222 246 265 280 289 283 280 274 206 301 308 301 313 323 308 298 297
299 15 317 148 116 87 353 8 319 8 327 356 355 356 352 339 288 319 350 332 320 330 357 294 255 262 256 245 234 239 271 274 273 283 269 264 272 295 286 297 302 307 283 285
20 328 11 29 34 25 3 29 46 314 338 6 343 340 334 331 336 348 1 358 337 357 329 281 237 246 245 235 222 240 256 274 281 276 281 253 261 277 293 313 291 298 288 273
44 47 48 40 86 50 37 55 10 359 354 358 357 349 351 25 13 355 340 339 329 335 339 316 339 305 254 226 216 231 249 264 276 263 271 274 273 265 280 291 290 311 307 282
55 47 74 106 63 67 55 37 19 4 8 355 353 343 6 11 11 3 355 350 348 346 344 339 324 317 306 273 232 230 240 248 261 260 263 268 275 267 273 285 286 293 291 285
48 27 82 67 51 207 32 32 16 8 8 7 360 9 3 8 356 352 345 337 346 337 341 338 336 329 294 273 273 243 228 239 255 262 270 252 260 262 259 273 269 266 279 311
45 23 30 55 27 4 13 11 10 7 3 6 353 4 359 355 353 354 347 353 3 354 343 341 336 334 324 309 287 271 243 249 247 258 265 256 255 270 271 269 273 274 279 275